[[{"header":{"parameterUnit":"m.s-1","parameterCategory":1,"la1":30.2991,"la2":30.254,"lo1":-89.0895,"lo2":-89.0444,"dy":0.0017,"dx":0.0017,"nx":28,"ny":28,"refTime":"2025-11-25T03:00:00:Z","depth":0,"parameterNumber":2,"parameterNumberName":"U-component_of_WINDS"},"data":[0,0,0,0,0,0,0,0,0,0,0,0,0,0,0,0,0,0,0,0,0,0,0,0,0,0,0,0,0,0,0,0,0,0,0,0,0,0,0,0,0,0,0,0,0,0,0,0,0,0,0,0,0,0,0,0,0,0,0.1136,0.1136,0,0.1156,0.1157,0.1157,0.1159,0.1159,0.1159,0.1159,0.1179,0.118,0.118,0,0,0,0,0,0,0,0,0,0,0,0,0,0.1097,0.1097,0.1136,0.1136,0.1136,0.1156,0.1157,0.1157,0.1159,0.1159,0.1159,0.1159,0.1179,0.118,0.1181,0,0,0,0,0,0,0,0,0,0,0,0,0,0.1115,0.1098,0.1136,0.114,0.1141,0.1156,0.1157,0.1157,0.116,0.1159,0.1159,0.1159,0.1179,0.118,0.1181,0.1193,0,0,0.1184,0.1184,0,0,0,0,0,0,0,0,0.1114,0.1117,0.1139,0.114,0.114,0.1155,0.115,0.1169,0.116,0.1152,0.1159,0.1159,0.1171,0.1173,0.1177,0.1194,0.1195,0.1184,0.1185,0.1185,0.1185,0,0,0,0,0,0,0,0.1113,0.1116,0.1144,0.1139,0.114,0.114,0.1143,0.1154,0.1163,0.1153,0.1153,0.1156,0.1172,0.1176,0.1178,0.1195,0.1184,0.1185,0.1186,0.1186,0.1223,0.1224,0,0,0,0,0,0,0.1111,0.1115,0.1143,0.1145,0.1126,0.1141,0.1144,0.1151,0.1163,0.1165,0.1156,0.1156,0.1175,0.1177,0.1179,0.1194,0.1185,0.1186,0.1187,0.1223,0.1223,0.1224,0,0,0,0,0,0,0.111,0.1114,0.1142,0.113,0.1133,0.1142,0.115,0.1151,0.1156,0.1165,0.1167,0.1159,0.1175,0.1177,0.119,0.1195,0.1187,0.1188,0.1223,0.1223,0.1224,0.1225,0,0,0,0,0,0,0.1109,0.1113,0.1119,0.113,0.1134,0.1154,0.115,0.1152,0.1158,0.1158,0.1169,0.117,0.1174,0.1188,0.1191,0.1196,0.1189,0.1222,0.1223,0.1223,0.1225,0.1226,0.1227,0,0,0,0,0,0.1108,0.1118,0.1119,0.1122,0.1141,0.1154,0.1156,0.1161,0.1159,0.1164,0.1169,0.117,0.1194,0.1189,0.1192,0.1198,0.1222,0.1223,0.1223,0.1225,0.1226,0.1227,0,0,0,0,0,0,0.1107,0.112,0.1121,0.1135,0.1143,0.1154,0.1161,0.1162,0.1171,0.1171,0.1176,0.1178,0.1191,0.1196,0.119,0.1211,0.1208,0.1209,0.1207,0.1209,0.121,0.1208,0.1189,0,0,0,0,0,0.1108,0.1118,0.1129,0.114,0.1145,0.1152,0.1158,0.1161,0.1169,0.1173,0.118,0.1188,0.1197,0.1203,0.1212,0.1226,0.1228,0.1231,0.1232,0.1233,0.1234,0.1241,0.1243,0.1226,0.1226,0.1226,0,0,0.1111,0.112,0.1126,0.114,0.1147,0.1157,0.1155,0.1165,0.1172,0.1174,0.1187,0.1192,0.1201,0.1214,0.122,0.1219,0.1239,0.1234,0.1234,0.1235,0.1242,0.1244,0.1245,0.1227,0.1227,0.1227,0,0,0.1122,0.113,0.114,0.1147,0.1158,0.1162,0.1165,0.1175,0.1179,0.1192,0.1193,0.1201,0.1217,0.1224,0.1229,0.1242,0.1243,0.1245,0.125,0.1257,0.1258,0.1259,0.1264,0.1265,0.1246,0.1246,0.1246,0,0.1125,0.114,0.1145,0.1156,0.1162,0.1164,0.1175,0.1181,0.1194,0.1198,0.1196,0.1216,0.1222,0.1237,0.124,0.1244,0.1247,0.1244,0.1257,0.1259,0.126,0.1264,0.1266,0.1246,0.1246,0.1246,0.1246,0,0.1143,0.1153,0.116,0.1173,0.118,0.119,0.1196,0.1203,0.1205,0.121,0.1222,0.123,0.124,0.1244,0.1246,0.1259,0.1257,0.1256,0.1253,0.1262,0.1266,0.1267,0.1246,0.1246,0.1246,0.1246,0,0,0.1154,0.1169,0.1172,0.1177,0.1189,0.1197,0.1207,0.1217,0.1223,0.1231,0.1239,0.1253,0.1252,0.1258,0.1261,0.1267,0.1276,0.1265,0.1265,0.1267,0.129,0.1291,0.1293,0.1277,0.1277,0.1277,0.1289,0,0.1166,0.1185,0.1189,0.1205,0.1215,0.1217,0.1226,0.1233,0.1238,0.1246,0.1251,0.126,0.1259,0.1262,0.1268,0.1274,0.1281,0.1273,0.1284,0.1285,0.1282,0.1295,0.1296,0.1307,0.1291,0.1291,0.1292,0,0.1183,0.1192,0.1209,0.1219,0.1223,0.1231,0.1241,0.1249,0.1257,0.126,0.1267,0.1269,0.1279,0.1275,0.1289,0.1283,0.1288,0.1291,0.1292,0.1293,0.1289,0.1297,0.1311,0.1312,0.1294,0.1294,0.1294,0,0.1189,0.1206,0.1218,0.1222,0.1235,0.124,0.1245,0.1253,0.1259,0.1268,0.1272,0.1281,0.1286,0.1293,0.1298,0.1295,0.1311,0.1308,0.1314,0.1314,0.1317,0.1317,0.1332,0.132,0.132,0.132,0.132,0,0.1202,0.1212,0.1221,0.1228,0.1239,0.1245,0.1255,0.1261,0.1268,0.1276,0.1278,0.1286,0.1291,0.1299,0.1303,0.1314,0.1316,0.1318,0.1319,0.1318,0.1318,0.1321,0.1321,0.1321,0.1321,0.132,0.132,0,0.1211,0.1217,0.1231,0.1241,0.1244,0.1252,0.126,0.1267,0.1272,0.1282,0.1285,0.1292,0.1302,0.1307,0.1319,0.1321,0.1333,0.1333,0.133,0.1331,0.1336,0.1336,0.1355,0.1357,0.1344,0.1344,0.1344,0,0.1219,0.1227,0.1238,0.1244,0.125,0.1259,0.1265,0.127,0.1277,0.1287,0.1292,0.1302,0.131,0.1325,0.1331,0.1341,0.1341,0.1347,0.1342,0.1341,0.1341,0.1341,0.1341,0.1348,0.1348,0.1348,0.1348,0,0.1233,0.1235,0.1244,0.1255,0.1262,0.127,0.1278,0.1282,0.1289,0.1296,0.1306,0.1312,0.1324,0.1334,0.1343,0.1348,0.1349,0.135,0.1351,0.1351,0.1348,0.135,0.1333,0.1349,0.1349,0.1349,0.1349,0.1349,0.1241,0.1249,0.1258,0.1268,0.1274,0.1281,0.1289,0.1294,0.1303,0.1313,0.1316,0.1326,0.1334,0.1347,0.1352,0.136,0.1359,0.1362,0.1362,0.1363,0.1363,0.1347,0.1362,0.1362,0.1362,0.1362,0.1362,0,0.1255,0.1261,0.127,0.1281,0.1289,0.129,0.1298,0.1305,0.1314,0.1321,0.1329,0.1341,0.135,0.1357,0.1366,0.1371,0.1372,0.1373,0.1373,0.1374,0.1364,0.1361,0.1373,0.1373,0.1373,0.1373,0.1373,0.1373,0.1263,0.1275,0.1279,0.1294,0.1299,0.131,0.1315,0.1321,0.1327,0.134,0.1348,0.1352,0.1359,0.1369,0.1378,0.1379,0.1382,0.1384,0.1386,0.1376,0.1375,0.1374,0.1371,0.1385,0.1385,0.1395,0.1395,0.1396]},{"header":{"parameterUnit":"m.s-1","parameterCategory":1,"la1":30.2991,"la2":30.254,"lo1":-89.0895,"lo2":-89.0444,"dy":0.0017,"dx":0.0017,"nx":28,"ny":28,"refTime":"2025-11-25T03:00:00:Z","depth":0,"parameterNumber":3,"parameterNumberName":"V-component_of_WINDS"},"data":[0,0,0,0,0,0,0,0,0,0,0,0,0,0,0,0,0,0,0,0,0,0,0,0,0,0,0,0,0,0,0,0,0,0,0,0,0,0,0,0,0,0,0,0,0,0,0,0,0,0,0,0,0,0,0,0,0,0,5.1398,5.1399,0,5.1544,5.1546,5.1547,5.1562,5.156,5.1559,5.1557,5.1704,5.1709,5.1715,0,0,0,0,0,0,0,0,0,0,0,0,0,5.113,5.1135,5.1398,5.1399,5.1401,5.1544,5.1546,5.1548,5.1562,5.156,5.1558,5.1557,5.1702,5.1709,5.1715,0,0,0,0,0,0,0,0,0,0,0,0,0,5.1258,5.1137,5.1397,5.1426,5.143,5.1543,5.1546,5.1548,5.1562,5.156,5.1558,5.1556,5.17,5.1708,5.1716,5.181,0,0,5.174,5.1744,0,0,0,0,0,0,0,0,5.1251,5.1268,5.142,5.1424,5.1429,5.1532,5.1505,5.1636,5.1563,5.1512,5.1557,5.1555,5.1649,5.1661,5.1693,5.1817,5.1824,5.1741,5.1746,5.1749,5.1752,0,0,0,0,0,0,0,5.1242,5.1262,5.1455,5.1422,5.1427,5.1431,5.1447,5.153,5.1591,5.1516,5.1518,5.1535,5.1651,5.1685,5.1697,5.1826,5.1741,5.1748,5.1753,5.1756,5.2039,5.2041,0,0,0,0,0,0,5.1228,5.1254,5.1451,5.146,5.1333,5.1438,5.1455,5.1501,5.159,5.1602,5.1537,5.1535,5.1673,5.1687,5.1702,5.1821,5.1749,5.1757,5.1761,5.2036,5.2039,5.2042,0,0,0,0,0,0,5.1222,5.1246,5.1445,5.1358,5.1383,5.1445,5.1496,5.1505,5.154,5.1606,5.1616,5.1561,5.1672,5.1691,5.1784,5.1826,5.176,5.1768,5.2033,5.2037,5.2041,5.2059,0,0,0,0,0,0,5.1215,5.1243,5.128,5.1358,5.1388,5.1525,5.1499,5.151,5.1554,5.1553,5.1631,5.1642,5.1671,5.1772,5.1792,5.1836,5.1774,5.2029,5.2035,5.204,5.2055,5.2063,5.207,0,0,0,0,0,5.1205,5.1278,5.1282,5.1305,5.1435,5.1527,5.1544,5.1577,5.1557,5.1595,5.1638,5.164,5.1818,5.1782,5.1804,5.1851,5.2027,5.2033,5.2039,5.2051,5.2061,5.207,0,0,0,0,0,0,5.1201,5.1288,5.1294,5.1394,5.1453,5.153,5.1578,5.1586,5.1652,5.1648,5.1685,5.1703,5.1796,5.1833,5.1791,5.1949,5.1921,5.1932,5.1922,5.1932,5.1939,5.1929,5.178,0,0,0,0,0,5.1211,5.128,5.1352,5.1434,5.1464,5.1516,5.1557,5.1578,5.164,5.1665,5.1715,5.1775,5.1845,5.189,5.1958,5.206,5.2078,5.2103,5.2111,5.2117,5.2126,5.2186,5.2199,5.2063,5.2062,5.2062,0,0,5.1234,5.1291,5.1331,5.1435,5.1483,5.1554,5.1537,5.1611,5.1664,5.1676,5.1769,5.1807,5.1877,5.1976,5.2022,5.201,5.2168,5.2124,5.2129,5.2135,5.2193,5.2206,5.2218,5.2067,5.2066,5.2065,0,0,5.1312,5.1361,5.1436,5.1485,5.156,5.1595,5.1613,5.1689,5.1716,5.1809,5.1821,5.1884,5.2003,5.2054,5.2095,5.2196,5.2201,5.2216,5.2257,5.2314,5.2325,5.2335,5.2373,5.2386,5.2225,5.2225,5.2225,0,5.1331,5.1438,5.1473,5.1548,5.1594,5.1611,5.1687,5.1733,5.1826,5.1857,5.1842,5.1995,5.2042,5.2155,5.218,5.2212,5.2235,5.2208,5.2321,5.2331,5.2341,5.2378,5.2392,5.2227,5.2227,5.2226,5.2226,0,5.1459,5.1533,5.1584,5.1676,5.1727,5.1802,5.1849,5.1897,5.1914,5.195,5.2047,5.2106,5.2187,5.2215,5.2231,5.2331,5.2322,5.2313,5.2286,5.2355,5.239,5.2404,5.2229,5.2229,5.2228,5.2228,0,0,5.1537,5.1649,5.1667,5.171,5.1795,5.1853,5.193,5.2011,5.2053,5.2116,5.2183,5.2285,5.2279,5.2326,5.2348,5.2398,5.2478,5.2384,5.2386,5.2402,5.2595,5.2603,5.2618,5.2482,5.2484,5.2487,5.259,0,5.1626,5.1765,5.18,5.1918,5.1989,5.2007,5.2074,5.2134,5.217,5.2236,5.2275,5.2349,5.2333,5.2362,5.2413,5.2457,5.2517,5.245,5.2545,5.2548,5.2529,5.2637,5.2644,5.2739,5.2604,5.2606,5.2608,0,5.1748,5.1818,5.1944,5.2023,5.2054,5.2114,5.2193,5.2254,5.2323,5.2346,5.24,5.2418,5.25,5.2468,5.2582,5.2536,5.2577,5.2605,5.2609,5.2621,5.2583,5.2653,5.2769,5.2785,5.263,5.2628,5.2627,0,5.1796,5.192,5.2013,5.2049,5.2142,5.2185,5.2225,5.2292,5.234,5.2409,5.244,5.2517,5.2559,5.2619,5.2657,5.263,5.277,5.274,5.2793,5.2792,5.2822,5.282,5.2949,5.2845,5.2845,5.2845,5.2845,0,5.1894,5.1971,5.2036,5.2093,5.2181,5.222,5.2306,5.2347,5.2407,5.2473,5.2492,5.2553,5.2599,5.2667,5.2698,5.279,5.2808,5.283,5.2838,5.283,5.2827,5.2858,5.2853,5.2849,5.2848,5.2847,5.2846,0,5.1962,5.2008,5.2111,5.2192,5.2215,5.2276,5.2345,5.2402,5.244,5.2523,5.2545,5.2605,5.2686,5.273,5.2831,5.2852,5.2956,5.2959,5.2933,5.2937,5.2989,5.2984,5.3144,5.3168,5.3045,5.3046,5.3047,0,5.2021,5.2082,5.2171,5.2217,5.2259,5.2333,5.2383,5.2424,5.2475,5.256,5.2607,5.269,5.2759,5.2888,5.294,5.3019,5.3025,5.3076,5.3037,5.3028,5.3029,5.3026,5.3033,5.3083,5.3084,5.3085,5.3085,0,5.2124,5.2145,5.2216,5.2297,5.2357,5.2422,5.2486,5.2523,5.2575,5.2632,5.2716,5.277,5.2875,5.2958,5.3041,5.3083,5.3094,5.3097,5.3114,5.3107,5.3092,5.3104,5.2954,5.3094,5.3093,5.3092,5.3092,5.3091,5.2191,5.2247,5.232,5.2399,5.2453,5.2513,5.2572,5.2618,5.269,5.278,5.28,5.289,5.2959,5.3073,5.3117,5.3189,5.3179,5.3202,5.3209,5.3215,5.3218,5.3079,5.3203,5.3203,5.3203,5.3203,5.3203,0,5.2297,5.2345,5.2418,5.2509,5.2573,5.2578,5.2651,5.2703,5.2783,5.2847,5.2916,5.3014,5.3096,5.3155,5.3238,5.3284,5.3292,5.3305,5.3303,5.3313,5.3221,5.3199,5.3298,5.3298,5.3298,5.3298,5.3298,5.3298,5.2359,5.2455,5.2485,5.2608,5.2656,5.2745,5.2787,5.2843,5.2896,5.3005,5.3074,5.3113,5.3176,5.3265,5.334,5.3355,5.3386,5.34,5.3416,5.3329,5.3319,5.3309,5.3289,5.3405,5.3405,5.3503,5.3503,5.3504]}]]